Stündliche Wetter Kyselytsi

Heute, 11 Mai, Dienstag

Zeit Temperatur Niederschläge Wind Luftdruck Luftfeuchtigkeit
00:00 +14°C° 0 mm 2 m/S 707 mmHg 98%
01:00 +14°C° 0 mm 1 m/S 707 mmHg 96%
02:00 +10°C° 0 mm 1 m/S 705 mmHg 98%
03:00 +11°C° 0 mm 1 m/S 705 mmHg 94%
04:00 +11°C° 0 mm 1 m/S 705 mmHg 89%
05:00 +10°C° 0 mm 2 m/S 705 mmHg 87%
06:00 +10°C° 0 mm 2 m/S 705 mmHg 90%
07:00 +12°C° 0 mm 2 m/S 706 mmHg 95%
08:00 +14°C° 0 mm 2 m/S 706 mmHg 92%
09:00 +16°C° 0 mm 2 m/S 707 mmHg 89%
10:00 +17°C° 0 mm 3 m/S 707 mmHg 87%
11:00 +18°C° 0 mm 4 m/S 707 mmHg 88%
12:00 +18°C° 0 mm 4 m/S 707 mmHg 87%
13:00 +19°C° 0 mm 4 m/S 706 mmHg 90%
14:00 +19°C° 0 mm 4 m/S 706 mmHg 91%
15:00 +19°C° 0 mm 4 m/S 706 mmHg 88%
16:00 +17°C° 0 mm 5 m/S 706 mmHg 90%
17:00 +17°C° 0 mm 5 m/S 706 mmHg 91%
18:00 +17°C° 0 mm 4 m/S 705 mmHg 92%
19:00 +15°C° 0 mm 4 m/S 705 mmHg 95%
20:00 +14°C° 0 mm 3 m/S 705 mmHg 98%
21:00 +13°C° 0 mm 3 m/S 704 mmHg 100%
22:00 +12°C° 0 mm 3 m/S 704 mmHg 100%
23:00 +11°C° 0 mm 3 m/S 704 mmHg 100%

Morgen, 12 Mai, Mittwoch

Zeit Temperatur Niederschläge Wind Luftdruck Luftfeuchtigkeit
00:00 +11°C° 0 mm 3 m/S 704 mmHg 100%
01:00 +10°C° 0 mm 2 m/S 703 mmHg 100%
02:00 +9°C° 0 mm 2 m/S 703 mmHg 100%
03:00 +9°C° 0 mm 2 m/S 702 mmHg 100%
04:00 +8°C° 0 mm 2 m/S 702 mmHg 100%
05:00 +9°C° 0 mm 1 m/S 702 mmHg 100%
06:00 +9°C° 0 mm 1 m/S 701 mmHg 100%
07:00 +11°C° 0 mm 1 m/S 702 mmHg 100%
08:00 +13°C° 0 mm 1 m/S 702 mmHg 95%
09:00 +15°C° 0 mm 1 m/S 702 mmHg 92%
10:00 +16°C° 0 mm 2 m/S 702 mmHg 93%
11:00 +15°C° 0 mm 4 m/S 702 mmHg 95%
12:00 +17°C° 0 mm 4 m/S 702 mmHg 92%
13:00 +15°C° 0 mm 4 m/S 701 mmHg 96%
14:00 +15°C° 0 mm 4 m/S 701 mmHg 96%
15:00 +14°C° 0 mm 5 m/S 701 mmHg 100%
16:00 +13°C° 0 mm 5 m/S 700 mmHg 100%
17:00 +12°C° 0 mm 4 m/S 700 mmHg 100%
18:00 +10°C° 0 mm 5 m/S 699 mmHg 100%
19:00 +11°C° 0 mm 4 m/S 699 mmHg 100%
20:00 +11°C° 0 mm 4 m/S 699 mmHg 100%
21:00 +10°C° 0 mm 4 m/S 698 mmHg 100%
22:00 +9°C° 0 mm 2 m/S 698 mmHg 100%
23:00 +10°C° 0 mm 2 m/S 698 mmHg 100%

übermorgen, 13 Mai, Donnerstag

Zeit Temperatur Niederschläge Wind Luftdruck Luftfeuchtigkeit
00:00 +10°C° 0 mm 2 m/S 698 mmHg 100%
01:00 +9°C° 0 mm 2 m/S 697 mmHg 100%
02:00 +9°C° 0 mm 3 m/S 697 mmHg 100%
03:00 +9°C° 0 mm 3 m/S 696 mmHg 100%
04:00 +8°C° 0 mm 4 m/S 696 mmHg 100%
05:00 +8°C° 0 mm 4 m/S 695 mmHg 100%
06:00 +10°C° 0 mm 4 m/S 695 mmHg 100%
07:00 +9°C° 0 mm 5 m/S 695 mmHg 100%
08:00 +10°C° 0 mm 5 m/S 695 mmHg 99%
09:00 +12°C° 0 mm 5 m/S 695 mmHg 97%
10:00 +14°C° 0 mm 5 m/S 695 mmHg 96%
11:00 +14°C° 0 mm 6 m/S 695 mmHg 93%
12:00 +14°C° 0 mm 6 m/S 695 mmHg 92%
13:00 +13°C° 0.1 mm 4 m/S 695 mmHg 96%
14:00 +16°C° 0.2 mm 3 m/S 694 mmHg 95%
15:00 +17°C° 0 mm 3 m/S 694 mmHg 85%
16:00 +17°C° 0 mm 4 m/S 694 mmHg 83%
17:00 +15°C° 0 mm 4 m/S 694 mmHg 87%
18:00 +15°C° 0 mm 5 m/S 694 mmHg 91%
19:00 +14°C° 0 mm 4 m/S 693 mmHg 92%
20:00 +13°C° 0 mm 3 m/S 694 mmHg 94%
21:00 +13°C° 0 mm 3 m/S 693 mmHg 94%
22:00 +12°C° 0 mm 3 m/S 693 mmHg 94%
23:00 +12°C° 0 mm 3 m/S 693 mmHg 94%

14 Mai, Freitag

Zeit Temperatur Niederschläge Wind Luftdruck Luftfeuchtigkeit
00:00 +11°C° 0 mm 3 m/S 693 mmHg 95%
01:00 +11°C° 0 mm 3 m/S 693 mmHg 97%
02:00 +11°C° 0 mm 3 m/S 693 mmHg 95%
03:00 +11°C° 0 mm 3 m/S 693 mmHg 95%
04:00 +11°C° 0 mm 3 m/S 693 mmHg 95%
05:00 +11°C° 0 mm 3 m/S 694 mmHg 96%
06:00 +12°C° 0 mm 2 m/S 694 mmHg 96%
07:00 +12°C° 0 mm 3 m/S 695 mmHg 96%
08:00 +13°C° 0 mm 5 m/S 695 mmHg 94%
09:00 +13°C° 0 mm 6 m/S 695 mmHg 92%
10:00 +13°C° 0 mm 6 m/S 696 mmHg 91%
11:00 +12°C° 0 mm 7 m/S 696 mmHg 91%
12:00 +14°C° 0 mm 7 m/S 696 mmHg 90%
13:00 +14°C° 0 mm 7 m/S 696 mmHg 90%
14:00 +15°C° 0 mm 7 m/S 696 mmHg 88%
15:00 +15°C° 0 mm 6 m/S 697 mmHg 87%
16:00 +15°C° 0 mm 6 m/S 697 mmHg 86%
17:00 +14°C° 0 mm 6 m/S 697 mmHg 87%
18:00 +14°C° 0 mm 6 m/S 697 mmHg 86%
19:00 +13°C° 0 mm 6 m/S 697 mmHg 86%
20:00 +12°C° 0 mm 5 m/S 697 mmHg 88%
21:00 +11°C° 0 mm 4 m/S 697 mmHg 93%
22:00 +11°C° 0 mm 4 m/S 697 mmHg 95%
23:00 +9°C° 0 mm 5 m/S 697 mmHg 96%

15 Mai, Samstag

Zeit Temperatur Niederschläge Wind Luftdruck Luftfeuchtigkeit
00:00 +10°C° 0 mm 4 m/S 697 mmHg 95%
01:00 +10°C° 0 mm 3 m/S 697 mmHg 95%
02:00 +10°C° 0 mm 3 m/S 697 mmHg 95%
03:00 +10°C° 0 mm 3 m/S 697 mmHg 97%
04:00 +9°C° 0 mm 2 m/S 697 mmHg 100%
05:00 +11°C° 0 mm 1 m/S 698 mmHg 98%
06:00 +10°C° 0 mm 2 m/S 698 mmHg 97%
07:00 +11°C° 0 mm 3 m/S 699 mmHg 98%
08:00 +12°C° 0 mm 5 m/S 699 mmHg 98%
09:00 +11°C° 0.4 mm 3 m/S 700 mmHg 100%
10:00 +13°C° 0 mm 3 m/S 701 mmHg 92%
11:00 +14°C° 0.2 mm 3 m/S 701 mmHg 95%
12:00 +15°C° 0.2 mm 2 m/S 701 mmHg 99%
13:00 +14°C° 1.3 mm 2 m/S 700 mmHg 98%
14:00 +16°C° 0.1 mm 2 m/S 700 mmHg 93%
15:00 +14°C° 0.7 mm 4 m/S 700 mmHg 99%
16:00 +14°C° 1.1 mm 1 m/S 700 mmHg 100%
17:00 +16°C° 0 mm 1 m/S 700 mmHg 96%
18:00 +15°C° 0.1 mm 0 m/S 700 mmHg 95%
19:00 +15°C° 0.1 mm 1 m/S 700 mmHg 98%
20:00 +15°C° 0.6 mm 1 m/S 700 mmHg 100%
21:00 +14°C° 1.7 mm 1 m/S 700 mmHg 100%
22:00 +12°C° 0.3 mm 0 m/S 700 mmHg 100%
23:00 +13°C° 0 mm 1 m/S 699 mmHg 100%

16 Mai, Sonntag

Zeit Temperatur Niederschläge Wind Luftdruck Luftfeuchtigkeit
00:00 +11°C° 0 mm 1 m/S 699 mmHg 100%
01:00 +11°C° 0 mm 1 m/S 699 mmHg 100%
02:00 +10°C° 0 mm 0 m/S 699 mmHg 100%
03:00 +10°C° 0 mm 0 m/S 699 mmHg 100%
04:00 +11°C° 0 mm 1 m/S 699 mmHg 100%
05:00 +10°C° 0 mm 0 m/S 699 mmHg 100%
06:00 +10°C° 0 mm 0 m/S 699 mmHg 100%
07:00 +10°C° 0 mm 0 m/S 700 mmHg 100%
08:00 +12°C° 0 mm 1 m/S 700 mmHg 100%
09:00 +13°C° 0 mm 1 m/S 701 mmHg 100%
10:00 +13°C° 0 mm 3 m/S 701 mmHg 100%
11:00 +16°C° 0 mm 3 m/S 701 mmHg 94%
12:00 +15°C° 0 mm 4 m/S 701 mmHg 90%
13:00 +14°C° 0 mm 3 m/S 701 mmHg 96%
14:00 +15°C° 0.2 mm 4 m/S 701 mmHg 85%
15:00 +17°C° 0 mm 3 m/S 701 mmHg 92%
16:00 +15°C° 0.6 mm 5 m/S 700 mmHg 92%
17:00 +15°C° 0 mm 4 m/S 700 mmHg 95%
18:00 +14°C° 1.1 mm 3 m/S 700 mmHg 100%
19:00 +14°C° 0.6 mm 3 m/S 700 mmHg 100%
20:00 +14°C° 0.2 mm 2 m/S 700 mmHg 100%
21:00 +14°C° 0.8 mm 1 m/S 700 mmHg 100%
22:00 +14°C° 0.5 mm 1 m/S 699 mmHg 100%
23:00 +14°C° 0 mm 1 m/S 700 mmHg 100%
Mehr zeigen

Wir brauchen deine Erlaubnis

Meteoprog und unser Service Anbieter werden persönliche Daten aufbewahren, so wie Cookies, Geräte Bezeichnung oder ähnliche Technologien von deinem Gerät und Prozess, so wie Persönliche Daten Inhalte und Werbungen, genauso wie social Media und den Verkehr zu analysieren.

  • Aufbewahrung und/oder Zugang zu deiner Geräte Informationen.

    Cookies, Geräte Bezeichnung oder andere Informationen, können aufbewahrt oder Zugang zu deinem Gerät erhalten, für den Grund, der oben angegeben wird.

  • Personalisierte Werbung und Inhalte, Messungen, Einblick in das Publikum und Produkt Entwicklung.

    Werbungen und Inhalte können personalisiert werden, basierend auf ein Profil. Mehr Daten können besser personalisierte Werbungen und Inhalte hinzufügen. Werbung und Inhalte können gezeigt und gemessen werden. Einblicke über das Publikum, welche die Werbung gesehen haben und den Inhalt, können abgeleitet werden. So wie Daten können genutzt werden, um es zu verbessern oder die Benutzer Erfahrung zu verbessern das System und die Software.

Wenn du “Ich stimme zu” klickst, erlaubst du uns, die Cookies zu benutzen die Geräte Bezeichnung, den Web oder ähnliche Technologien zu benutzen. Deine Settings, können in deinem Gerät bei deinem Browser geändert werden.

Für den bestimmten Zweck, berechtigten Interessen beruhen darauf, mehr als auf den Inhalt. Du kannst mehr darüber in unseren Privaten und Cookie Politik lesen.